QTR295 LTFM-OJAI

Flight info

Callsign QTR295
Flight time 1h 44m
Altitude 41000
Route RATVU1D/35L RATVU UT35 AYT UM855 TOMBI DCT IDAKU L35 PIKOG L609 KONFO/N0491F370 L609 VOLFO N134 RALNA
Aircraft A35K/H-SDE2E3GHIJ3J4J5LM1ORWXY/LB1D1

Departure

Time 2026-05-05 18:30
Airport İstanbul Airport (LTFM)

Arrival

Time 2026-05-05 20:14
Airport Queen Alia International Airport (OJAI)
Time Latitude Longitude Altitude Speed Heading
2026-05-05 18:04 41.26990 28.72114 315 ft 0 kts 268°
2026-05-05 18:21 41.26990 28.72117 314 ft 2 kts 268°
2026-05-05 18:21 41.26990 28.72138 314 ft 2 kts 268°
2026-05-05 18:22 41.26991 28.72159 313 ft 2 kts 268°
2026-05-05 18:22 41.26991 28.72180 313 ft 2 kts 268°
2026-05-05 18:22 41.26992 28.72201 313 ft 2 kts 268°
2026-05-05 18:22 41.26992 28.72222 313 ft 3 kts 265°
2026-05-05 18:23 41.26997 28.72245 313 ft 3 kts 231°
2026-05-05 18:23 41.27010 28.72261 311 ft 3 kts 197°
2026-05-05 18:23 41.27018 28.72265 311 ft 0 kts 184°
2026-05-05 18:26 41.27000 28.72269 311 ft 10 kts 170°
2026-05-05 18:26 41.26926 28.72280 316 ft 3 kts 176°
2026-05-05 18:26 41.26880 28.72283 315 ft 10 kts 178°
2026-05-05 18:26 41.26793 28.72287 315 ft 15 kts 178°
2026-05-05 18:27 41.26669 28.72289 316 ft 20 kts 181°
2026-05-05 18:27 41.26512 28.72290 315 ft 25 kts 178°
2026-05-05 18:27 41.26438 28.72293 315 ft 12 kts 178°
2026-05-05 18:27 41.26363 28.72295 318 ft 0 kts 179°
2026-05-05 18:28 41.26295 28.72295 316 ft 4 kts 180°
2026-05-05 18:28 41.26245 28.72309 317 ft 10 kts 149°
2026-05-05 18:28 41.26221 28.72359 317 ft 0 kts 111°
2026-05-05 18:29 41.26220 28.72363 317 ft 3 kts 108°
2026-05-05 18:29 41.26214 28.72419 318 ft 9 kts 94°
2026-05-05 18:29 41.26247 28.72507 316 ft 13 kts 31°
2026-05-05 18:29 41.26313 28.72521 316 ft 0 kts
2026-05-05 18:30 41.26353 28.72523 318 ft 30 kts
2026-05-05 18:30 41.26849 28.72514 314 ft 110 kts 359°
2026-05-05 18:30 41.27851 28.72485 304 ft 174 kts 359°
2026-05-05 18:30 41.29044 28.72431 1108 ft 170 kts 356°
2026-05-05 18:31 41.30232 28.72065 1676 ft 189 kts 332°
2026-05-05 18:31 41.31389 28.71009 1966 ft 215 kts 320°
2026-05-05 18:31 41.32563 28.69600 2314 ft 239 kts 315°
2026-05-05 18:31 41.33690 28.67895 2903 ft 250 kts 307°
2026-05-05 18:32 41.34642 28.65942 3650 ft 255 kts 298°
2026-05-05 18:32 41.35331 28.63748 4353 ft 261 kts 285°
2026-05-05 18:32 41.35500 28.61340 4803 ft 263 kts 262°
2026-05-05 18:32 41.34820 28.59107 4923 ft 264 kts 232°
2026-05-05 18:33 41.33507 28.57439 4922 ft 265 kts 219°
2026-05-05 18:33 41.32063 28.55904 5084 ft 268 kts 219°
2026-05-05 18:33 41.30601 28.54344 5715 ft 271 kts 219°
2026-05-05 18:33 41.29138 28.52765 6581 ft 271 kts 220°
2026-05-05 18:34 41.27675 28.51175 7380 ft 273 kts 220°
2026-05-05 18:34 41.26195 28.49561 8149 ft 277 kts 220°
2026-05-05 18:34 41.24702 28.47931 8910 ft 280 kts 220°
2026-05-05 18:34 41.23186 28.46275 9666 ft 283 kts 220°
2026-05-05 18:35 41.21648 28.44596 10317 ft 292 kts 220°
2026-05-05 18:35 41.19896 28.43062 10604 ft 312 kts 206°
2026-05-05 18:35 41.17742 28.42307 10855 ft 332 kts 182°
2026-05-05 18:35 41.15405 28.42776 11122 ft 350 kts 163°
2026-05-05 18:36 41.13115 28.44035 11506 ft 361 kts 153°
2026-05-05 18:36 41.10909 28.45679 12091 ft 366 kts 149°
2026-05-05 18:36 41.08730 28.47470 12706 ft 370 kts 148°
2026-05-05 18:36 41.06539 28.49297 13295 ft 374 kts 148°
2026-05-05 18:37 41.04310 28.51108 13901 ft 377 kts 149°
2026-05-05 18:37 41.02042 28.52886 14480 ft 380 kts 150°
2026-05-05 18:37 40.99738 28.54637 15075 ft 384 kts 150°
2026-05-05 18:37 40.97400 28.56376 15652 ft 387 kts 151°
2026-05-05 18:38 40.95041 28.58113 16224 ft 390 kts 151°
2026-05-05 18:38 40.92659 28.59858 16790 ft 393 kts 151°
2026-05-05 18:38 40.90257 28.61616 17339 ft 396 kts 151°
2026-05-05 18:38 40.87835 28.63391 17878 ft 399 kts 151°
2026-05-05 18:39 40.85398 28.65177 18395 ft 402 kts 151°
2026-05-05 18:39 40.82939 28.66980 18912 ft 406 kts 151°
2026-05-05 18:39 40.80460 28.68798 19408 ft 409 kts 151°
2026-05-05 18:39 40.77966 28.70625 19896 ft 412 kts 151°
2026-05-05 18:40 40.75450 28.72468 20361 ft 415 kts 151°
2026-05-05 18:40 40.72920 28.74318 20833 ft 418 kts 151°
2026-05-05 18:40 40.70371 28.76182 21287 ft 420 kts 151°
2026-05-05 18:40 40.67807 28.78054 21726 ft 423 kts 151°
2026-05-05 18:41 40.65224 28.79939 22152 ft 426 kts 151°
2026-05-05 18:41 40.62622 28.81835 22561 ft 429 kts 151°
2026-05-05 18:41 40.60004 28.83742 22965 ft 431 kts 151°
2026-05-05 18:41 40.57369 28.85658 23368 ft 434 kts 151°
2026-05-05 18:42 40.54718 28.87585 23741 ft 437 kts 151°
2026-05-05 18:42 40.52044 28.89528 24048 ft 441 kts 151°
2026-05-05 18:42 40.49350 28.91482 24404 ft 443 kts 151°
2026-05-05 18:42 40.46645 28.93443 24791 ft 445 kts 151°
2026-05-05 18:43 40.43926 28.95412 25174 ft 447 kts 151°
2026-05-05 18:43 40.41197 28.97386 25566 ft 449 kts 151°
2026-05-05 18:43 40.38457 28.99367 25925 ft 451 kts 151°
2026-05-05 18:43 40.35697 29.01360 26288 ft 454 kts 151°
2026-05-05 18:44 40.32959 29.03335 26622 ft 457 kts 151°
2026-05-05 18:44 40.30166 29.05348 26937 ft 460 kts 151°
2026-05-05 18:44 40.27356 29.07372 27333 ft 462 kts 151°
2026-05-05 18:44 40.24528 29.09407 27723 ft 464 kts 151°
2026-05-05 18:45 40.21687 29.11448 28123 ft 467 kts 151°
2026-05-05 18:45 40.18834 29.13497 28499 ft 470 kts 151°
2026-05-05 18:45 40.15958 29.15560 28869 ft 473 kts 151°
2026-05-05 18:45 40.13060 29.17637 29089 ft 478 kts 151°
2026-05-05 18:46 40.10123 29.19740 29224 ft 484 kts 151°
2026-05-05 18:46 40.07158 29.21860 29382 ft 488 kts 151°
2026-05-05 18:46 40.04166 29.23998 29598 ft 492 kts 151°
2026-05-05 18:46 40.01163 29.26142 29956 ft 492 kts 151°
2026-05-05 18:47 39.98159 29.28283 30335 ft 493 kts 152°
2026-05-05 18:47 39.96164 29.29705 30570 ft 494 kts 152°
2026-05-05 18:47 39.93141 29.31856 31016 ft 497 kts 152°
2026-05-05 18:47 39.90101 29.34018 31435 ft 498 kts 152°
2026-05-05 18:48 39.87047 29.36187 31799 ft 502 kts 152°
2026-05-05 18:48 39.83975 29.38368 32214 ft 505 kts 152°
2026-05-05 18:48 39.80894 29.40552 32747 ft 503 kts 152°
2026-05-05 18:48 39.77828 29.42723 33377 ft 500 kts 152°
2026-05-05 18:49 39.74774 29.44885 33966 ft 499 kts 152°
2026-05-05 18:49 39.71733 29.47034 34504 ft 497 kts 152°
2026-05-05 18:49 39.68700 29.49176 35020 ft 496 kts 152°
2026-05-05 18:49 39.65669 29.51300 35469 ft 495 kts 153°
2026-05-05 18:50 39.62538 29.53137 35900 ft 494 kts 158°
2026-05-05 18:50 39.59355 29.54817 36281 ft 494 kts 158°
2026-05-05 18:50 39.56149 29.56448 36630 ft 495 kts 159°
2026-05-05 18:50 39.52934 29.58051 36929 ft 496 kts 159°
2026-05-05 18:51 39.46488 29.61237 37002 ft 495 kts 159°
2026-05-05 18:51 39.40051 29.64422 36999 ft 495 kts 159°
2026-05-05 18:52 39.33604 29.67621 37000 ft 497 kts 159°
2026-05-05 18:52 39.27147 29.70822 37000 ft 497 kts 159°
2026-05-05 18:53 39.20694 29.74016 37000 ft 497 kts 159°
2026-05-05 18:53 39.14243 29.77202 36999 ft 497 kts 159°
2026-05-05 18:54 39.07775 29.80389 37000 ft 497 kts 159°
2026-05-05 18:54 39.01354 29.83547 37000 ft 498 kts 159°
2026-05-05 18:55 38.94882 29.86724 37000 ft 498 kts 159°
2026-05-05 18:55 38.88410 29.89895 37000 ft 498 kts 159°
2026-05-05 18:56 38.81925 29.93012 37000 ft 497 kts 160°
2026-05-05 18:56 38.75436 29.96075 36999 ft 498 kts 160°
2026-05-05 18:57 38.68916 29.99153 37000 ft 499 kts 160°
2026-05-05 18:57 38.62404 30.02232 37000 ft 499 kts 160°
2026-05-05 18:58 38.55896 30.05308 37000 ft 498 kts 160°
2026-05-05 18:58 38.49399 30.08373 37001 ft 497 kts 160°
2026-05-05 18:59 38.42924 30.11420 37000 ft 496 kts 160°
2026-05-05 18:59 38.36447 30.14463 37000 ft 497 kts 160°
2026-05-05 19:00 38.29954 30.17502 37000 ft 496 kts 160°
2026-05-05 19:00 38.23458 30.20481 37000 ft 496 kts 160°
2026-05-05 19:01 38.16957 30.23454 37000 ft 497 kts 160°
2026-05-05 19:01 38.10454 30.26427 37000 ft 497 kts 160°
2026-05-05 19:02 38.03955 30.29399 37000 ft 496 kts 160°
2026-05-05 19:02 37.97490 30.32354 37000 ft 498 kts 160°
2026-05-05 19:03 37.90971 30.35306 37001 ft 497 kts 160°
2026-05-05 19:03 37.84469 30.38240 37001 ft 495 kts 160°
2026-05-05 19:04 37.77982 30.41166 36999 ft 495 kts 160°
2026-05-05 19:04 37.71468 30.44101 36999 ft 498 kts 160°
2026-05-05 19:05 37.64932 30.47041 37000 ft 499 kts 160°
2026-05-05 19:05 37.58388 30.49979 37001 ft 499 kts 160°
2026-05-05 19:06 37.51871 30.52900 37001 ft 496 kts 160°
2026-05-05 19:06 37.45375 30.55806 37001 ft 495 kts 160°
2026-05-05 19:07 37.38886 30.58703 37000 ft 495 kts 161°
2026-05-05 19:07 37.32423 30.61583 36999 ft 496 kts 161°
2026-05-05 19:08 37.25913 30.64479 36999 ft 497 kts 161°
2026-05-05 19:08 37.19410 30.67366 37001 ft 494 kts 161°
2026-05-05 19:09 37.12949 30.70230 37001 ft 492 kts 161°
2026-05-05 19:09 37.06504 30.73081 37000 ft 491 kts 161°
2026-05-05 19:10 37.00070 30.75923 37000 ft 490 kts 161°
2026-05-05 19:10 36.93606 30.78614 37001 ft 489 kts 166°
2026-05-05 19:11 36.86877 30.79661 37000 ft 488 kts 177°
2026-05-05 19:11 36.80094 30.79958 37000 ft 488 kts 179°
2026-05-05 19:12 36.73306 30.80139 37000 ft 488 kts 179°
2026-05-05 19:12 36.66515 30.80339 37000 ft 488 kts 179°
2026-05-05 19:13 36.59728 30.80564 37000 ft 488 kts 179°
2026-05-05 19:13 36.52940 30.80800 37000 ft 488 kts 179°
2026-05-05 19:14 36.46154 30.81036 37000 ft 488 kts 179°
2026-05-05 19:14 36.39367 30.81270 37000 ft 488 kts 179°
2026-05-05 19:15 36.32626 30.81497 37000 ft 488 kts 179°
2026-05-05 19:15 36.25840 30.81721 37000 ft 488 kts 179°
2026-05-05 19:16 36.19055 30.81946 37000 ft 488 kts 179°
2026-05-05 19:16 36.12271 30.82172 37000 ft 488 kts 179°
2026-05-05 19:17 36.05568 30.83376 37000 ft 488 kts 163°
2026-05-05 19:17 35.99484 30.87002 37002 ft 488 kts 144°
2026-05-05 19:18 35.94077 30.92095 37000 ft 489 kts 141°
2026-05-05 19:18 35.88801 30.97396 37000 ft 489 kts 141°
2026-05-05 19:19 35.83519 31.02678 37000 ft 489 kts 141°
2026-05-05 19:19 35.78245 31.07883 37000 ft 489 kts 141°
2026-05-05 19:20 35.72922 31.13101 37000 ft 489 kts 141°
2026-05-05 19:20 35.67597 31.18307 37000 ft 489 kts 142°
2026-05-05 19:21 35.62270 31.23511 37000 ft 489 kts 142°
2026-05-05 19:21 35.56938 31.28710 37000 ft 489 kts 142°
2026-05-05 19:22 35.51608 31.33900 37000 ft 489 kts 142°
2026-05-05 19:22 35.46274 31.39083 37000 ft 489 kts 142°
2026-05-05 19:23 35.40940 31.44259 37000 ft 489 kts 142°
2026-05-05 19:23 35.35604 31.49427 37000 ft 489 kts 142°
2026-05-05 19:24 35.30262 31.54591 37000 ft 489 kts 142°
2026-05-05 19:24 35.24918 31.59749 37000 ft 489 kts 142°
2026-05-05 19:25 35.19609 31.64864 37000 ft 489 kts 142°
2026-05-05 19:25 35.14230 31.70038 37000 ft 489 kts 142°
2026-05-05 19:26 35.08916 31.75141 37000 ft 489 kts 142°
2026-05-05 19:26 35.03566 31.80268 37000 ft 489 kts 142°
2026-05-05 19:27 34.98213 31.85391 37000 ft 489 kts 142°
2026-05-05 19:27 34.92859 31.90505 37000 ft 489 kts 142°
2026-05-05 19:28 34.87501 31.95615 37000 ft 489 kts 142°
2026-05-05 19:28 34.82143 32.00716 37000 ft 489 kts 142°
2026-05-05 19:29 34.76781 32.05812 37000 ft 489 kts 142°
2026-05-05 19:29 34.71419 32.10899 37000 ft 489 kts 142°
2026-05-05 19:30 34.66056 32.15979 37000 ft 489 kts 142°
2026-05-05 19:30 34.60687 32.21056 37000 ft 489 kts 142°
2026-05-05 19:31 34.55318 32.26124 37000 ft 489 kts 142°
2026-05-05 19:31 34.49946 32.31187 37000 ft 489 kts 142°
2026-05-05 19:32 34.44574 32.36241 37000 ft 489 kts 142°
2026-05-05 19:32 34.39194 32.41295 37000 ft 489 kts 142°
2026-05-05 19:33 34.33820 32.46334 37000 ft 489 kts 142°
2026-05-05 19:33 34.28442 32.51369 37000 ft 489 kts 142°
2026-05-05 19:34 34.23059 32.56399 37000 ft 489 kts 142°
2026-05-05 19:35 34.14979 32.63935 37000 ft 489 kts 142°
2026-05-05 19:35 34.09587 32.68934 36997 ft 489 kts 144°
2026-05-05 19:36 34.03896 32.73417 37000 ft 489 kts 148°
2026-05-05 19:36 33.99095 32.77015 37000 ft 489 kts 148°
2026-05-05 19:37 33.92363 32.82004 37000 ft 489 kts 148°
2026-05-05 19:37 33.87508 32.85601 37000 ft 489 kts 148°
2026-05-05 19:38 33.81719 32.89895 37001 ft 490 kts 148°
2026-05-05 19:38 33.75832 32.94257 36997 ft 503 kts 148°
2026-05-05 19:39 33.69869 32.98669 37000 ft 503 kts 148°
2026-05-05 19:39 33.63902 33.03077 37000 ft 503 kts 148°
2026-05-05 19:40 33.57942 33.07471 36999 ft 500 kts 148°
2026-05-05 19:40 33.55018 33.09625 37002 ft 489 kts 148°
2026-05-05 19:40 33.52109 33.11766 37003 ft 491 kts 148°
2026-05-05 19:41 33.46298 33.16037 37000 ft 489 kts 148°
2026-05-05 19:41 33.40498 33.20293 37000 ft 489 kts 148°
2026-05-05 19:42 33.34694 33.24545 37000 ft 489 kts 148°
2026-05-05 19:42 33.28897 33.28786 37000 ft 489 kts 149°
2026-05-05 19:43 33.23148 33.32985 37000 ft 489 kts 149°
2026-05-05 19:43 33.17345 33.37216 37000 ft 489 kts 149°
2026-05-05 19:44 33.11540 33.41442 37000 ft 489 kts 149°
2026-05-05 19:44 33.05734 33.45663 37000 ft 489 kts 149°
2026-05-05 19:45 32.99925 33.49880 37000 ft 489 kts 149°
2026-05-05 19:45 32.94115 33.54090 37000 ft 489 kts 149°
2026-05-05 19:46 32.88305 33.58293 37000 ft 489 kts 149°
2026-05-05 19:46 32.82631 33.62743 37001 ft 489 kts 140°
2026-05-05 19:47 32.77714 33.68323 37000 ft 489 kts 134°
2026-05-05 19:47 32.72993 33.74144 37000 ft 489 kts 134°
2026-05-05 19:48 32.68293 33.79992 37000 ft 489 kts 134°
2026-05-05 19:48 32.63578 33.85819 37000 ft 489 kts 134°
2026-05-05 19:49 32.58882 33.91586 37000 ft 489 kts 134°
2026-05-05 19:49 32.54155 33.97388 37000 ft 489 kts 134°
2026-05-05 19:50 32.49471 34.03236 37000 ft 489 kts 133°
2026-05-05 19:50 32.44751 34.09038 36999 ft 489 kts 137°
2026-05-05 19:51 32.39201 34.13639 36996 ft 488 kts 149°
2026-05-05 19:51 32.33825 34.18533 37000 ft 489 kts 134°
2026-05-05 19:51 32.31688 34.21651 36999 ft 488 kts 123°
2026-05-05 19:52 32.30004 34.25120 36776 ft 487 kts 117°
2026-05-05 19:52 32.28478 34.28696 36522 ft 489 kts 116°
2026-05-05 19:52 32.26999 34.32320 36272 ft 489 kts 115°
2026-05-05 19:52 32.25528 34.35942 36022 ft 490 kts 116°
2026-05-05 19:53 32.24039 34.39565 35765 ft 490 kts 116°
2026-05-05 19:53 32.22533 34.43170 35522 ft 490 kts 116°
2026-05-05 19:53 32.21005 34.46779 35282 ft 491 kts 117°
2026-05-05 19:53 32.19474 34.50367 34812 ft 487 kts 117°
2026-05-05 19:54 32.17948 34.53939 34055 ft 487 kts 116°
2026-05-05 19:54 32.16676 34.57644 33245 ft 488 kts 107°
2026-05-05 19:54 32.15823 34.61525 32432 ft 489 kts 103°
2026-05-05 19:54 32.15100 34.65445 31596 ft 490 kts 102°
2026-05-05 19:55 32.14434 34.69390 30729 ft 491 kts 101°
2026-05-05 19:55 32.13793 34.73348 29826 ft 492 kts 101°
2026-05-05 19:55 32.13166 34.77251 29162 ft 489 kts 101°
2026-05-05 19:55 32.12533 34.81174 28498 ft 485 kts 101°
2026-05-05 19:56 32.11897 34.85065 27859 ft 481 kts 101°
2026-05-05 19:56 32.11234 34.88910 27239 ft 476 kts 104°
2026-05-05 19:56 32.10313 34.92639 26625 ft 471 kts 107°
2026-05-05 19:56 32.09322 34.96301 25997 ft 467 kts 108°
2026-05-05 19:57 32.08300 34.99915 25361 ft 462 kts 109°
2026-05-05 19:57 32.07271 35.03485 24787 ft 457 kts 109°
2026-05-05 19:57 32.06247 35.07008 24171 ft 452 kts 109°
2026-05-05 19:57 32.05232 35.10499 23570 ft 447 kts 109°
2026-05-05 19:58 32.04231 35.13949 22982 ft 442 kts 109°
2026-05-05 19:58 32.03243 35.17363 22401 ft 437 kts 109°
2026-05-05 19:58 32.02270 35.20736 21810 ft 432 kts 109°
2026-05-05 19:58 32.01302 35.24069 21230 ft 427 kts 109°
2026-05-05 19:59 32.00341 35.27363 20645 ft 423 kts 109°
2026-05-05 19:59 31.99397 35.30621 20066 ft 418 kts 109°
2026-05-05 19:59 31.98468 35.33849 19487 ft 414 kts 109°
2026-05-05 19:59 31.97550 35.37040 18905 ft 410 kts 109°
2026-05-05 20:00 31.96640 35.40206 18317 ft 405 kts 109°
2026-05-05 20:00 31.95741 35.43330 17744 ft 401 kts 109°
2026-05-05 20:00 31.94850 35.46420 17165 ft 397 kts 109°
2026-05-05 20:00 31.93984 35.49482 16569 ft 392 kts 107°
2026-05-05 20:01 31.93456 35.52613 16006 ft 388 kts 97°
2026-05-05 20:01 31.92963 35.55713 15425 ft 384 kts 107°
2026-05-05 20:01 31.91892 35.58523 14847 ft 381 kts 120°
2026-05-05 20:01 31.90662 35.61271 14286 ft 378 kts 116°
2026-05-05 20:02 31.89550 35.64062 13703 ft 375 kts 115°
2026-05-05 20:02 31.88472 35.66852 13131 ft 373 kts 114°
2026-05-05 20:02 31.87410 35.69622 12562 ft 370 kts 114°
2026-05-05 20:02 31.86360 35.72364 11978 ft 367 kts 114°
2026-05-05 20:03 31.85326 35.75069 11696 ft 355 kts 114°
2026-05-05 20:03 31.84335 35.77663 11592 ft 338 kts 114°
2026-05-05 20:03 31.83395 35.80123 11494 ft 322 kts 114°
2026-05-05 20:03 31.82513 35.82481 11368 ft 308 kts 112°
2026-05-05 20:04 31.82023 35.84858 11245 ft 294 kts 93°
2026-05-05 20:04 31.82116 35.87201 11121 ft 281 kts 83°
2026-05-05 20:04 31.82370 35.89458 10974 ft 277 kts 82°
2026-05-05 20:04 31.82636 35.91704 10800 ft 277 kts 82°
2026-05-05 20:05 31.82896 35.93939 10492 ft 275 kts 82°
2026-05-05 20:05 31.83150 35.96165 10192 ft 274 kts 82°
2026-05-05 20:05 31.83401 35.98384 9904 ft 274 kts 82°
2026-05-05 20:05 31.83662 36.00681 9747 ft 290 kts 82°
2026-05-05 20:06 31.83924 36.03040 9570 ft 289 kts 82°
2026-05-05 20:06 31.84183 36.05387 9056 ft 291 kts 82°
2026-05-05 20:06 31.84443 36.07750 8599 ft 290 kts 82°
2026-05-05 20:06 31.84701 36.10088 8276 ft 287 kts 82°
2026-05-05 20:07 31.84957 36.12413 7976 ft 286 kts 82°
2026-05-05 20:07 31.85213 36.14723 7717 ft 281 kts 82°
2026-05-05 20:07 31.85458 36.16953 7586 ft 268 kts 83°
2026-05-05 20:07 31.85688 36.19066 7411 ft 261 kts 83°
2026-05-05 20:08 31.85818 36.21180 7135 ft 259 kts 94°
2026-05-05 20:08 31.85279 36.23203 6882 ft 258 kts 123°
2026-05-05 20:08 31.83965 36.24591 6610 ft 256 kts 154°
2026-05-05 20:08 31.82290 36.25158 6440 ft 246 kts 171°
2026-05-05 20:09 31.80642 36.25465 6329 ft 235 kts 172°
2026-05-05 20:09 31.79037 36.25749 6106 ft 232 kts 172°
2026-05-05 20:09 31.77456 36.25820 5880 ft 231 kts 189°
2026-05-05 20:09 31.76007 36.25086 5636 ft 228 kts 220°
2026-05-05 20:10 31.75115 36.23582 5390 ft 226 kts 251°
2026-05-05 20:10 31.74777 36.21818 5289 ft 215 kts 261°
2026-05-05 20:10 31.74559 36.20117 5223 ft 208 kts 262°
2026-05-05 20:10 31.74373 36.18485 5150 ft 194 kts 262°
2026-05-05 20:11 31.74154 36.16958 4967 ft 187 kts 260°
2026-05-05 20:11 31.73938 36.15471 4724 ft 183 kts 261°
2026-05-05 20:11 31.73735 36.14024 4459 ft 175 kts 261°
2026-05-05 20:11 31.73540 36.12647 4230 ft 166 kts 261°
2026-05-05 20:12 31.73353 36.11349 3995 ft 156 kts 261°
2026-05-05 20:12 31.73179 36.10135 3809 ft 146 kts 261°
2026-05-05 20:12 31.73013 36.08979 3613 ft 142 kts 261°
2026-05-05 20:12 31.72848 36.07833 3430 ft 142 kts 261°
2026-05-05 20:13 31.72682 36.06686 3240 ft 142 kts 261°
2026-05-05 20:13 31.72517 36.05538 3047 ft 142 kts 261°
2026-05-05 20:13 31.72352 36.04394 2854 ft 142 kts 261°
2026-05-05 20:13 31.72188 36.03254 2679 ft 141 kts 260°
2026-05-05 20:14 31.72024 36.02118 2487 ft 141 kts 261°
2026-05-05 20:14 31.71863 36.01005 2382 ft 130 kts 261°
2026-05-05 20:14 31.71749 36.00205 2381 ft 58 kts 261°
2026-05-05 20:14 31.71729 36.00046 2382 ft 0 kts 260°
2026-05-05 20:15 31.71726 36.00026 2381 ft 4 kts 259°
2026-05-05 20:15 31.71719 35.99977 2381 ft 8 kts 262°
2026-05-05 20:15 31.71710 35.99904 2381 ft 11 kts 261°
2026-05-05 20:15 31.71696 35.99805 2381 ft 13 kts 260°
2026-05-05 20:16 31.71674 35.99638 2379 ft 29 kts 263°
2026-05-05 20:16 31.71681 35.99401 2378 ft 29 kts 283°
2026-05-05 20:16 31.71741 35.99193 2377 ft 17 kts 291°
2026-05-05 20:16 31.71781 35.99071 2377 ft 1 kts 290°
2026-05-05 20:18 31.71784 35.99067 2377 ft 1 kts 307°
2026-05-05 20:18 31.71800 35.99059 2377 ft 3 kts 350°
2026-05-05 20:18 31.71832 35.99072 2377 ft 7 kts 31°
2026-05-05 20:19 31.71865 35.99125 2377 ft 10 kts 67°
2026-05-05 20:19 31.71887 35.99217 2377 ft 14 kts 78°
2026-05-05 20:19 31.71906 35.99341 2378 ft 17 kts 80°
2026-05-05 20:19 31.71945 35.99471 2379 ft 17 kts 40°
2026-05-05 20:20 31.72027 35.99487 2379 ft 0 kts 357°
2026-05-05 20:20 31.72036 35.99486 2379 ft 3 kts 355°
2026-05-05 20:20 31.72068 35.99482 2379 ft 6 kts 352°
2026-05-05 20:20 31.72120 35.99472 2379 ft 9 kts 350°
2026-05-05 20:21 31.72137 35.99469 2379 ft 1 kts 350°
2026-05-05 20:21 31.72155 35.99465 2379 ft 4 kts 350°
2026-05-05 20:21 31.72195 35.99457 2379 ft 7 kts 348°
2026-05-05 20:21 31.72254 35.99444 2379 ft 10 kts 351°
2026-05-05 20:22 31.72330 35.99430 2380 ft 12 kts 351°
2026-05-05 20:22 31.72421 35.99413 2380 ft 14 kts 351°
2026-05-05 20:22 31.72478 35.99400 2380 ft 7 kts 348°
2026-05-05 20:22 31.72531 35.99371 2381 ft 9 kts 316°
2026-05-05 20:23 31.72550 35.99295 2380 ft 10 kts 271°
2026-05-05 20:23 31.72541 35.99203 2380 ft 12 kts 261°
2026-05-05 20:23 31.72535 35.99158 2380 ft 2 kts 261°
2026-05-05 20:23 31.72533 35.99140 2380 ft 4 kts 265°
2026-05-05 20:24 31.72542 35.99121 2380 ft 3 kts 311°
2026-05-05 20:24 31.72562 35.99103 2380 ft 5 kts 326°
2026-05-05 20:24 31.72591 35.99088 2380 ft 0 kts 342°